Location: Carnetin
(48.9010°N, 2.7059°E)
Time: 00:08:59
(UTC+00:00)

Sep Motor Cover - Visible Passes

Search period start: 11 August 2022 00:00
Search period end: 21 August 2022 00:00
Orbit: 837 x 1138 km, 71.0° (Epoch: 10 August)

Date Brightness Start Highest point End Pass type
(mag) Time Alt. Az. Time Alt. Az. Time Alt. Az.
11 Aug ? 01:45:22 10° WNW 01:50:31 20° NNW 01:55:40 10° NNE visible
11 Aug ? 03:38:44 10° NNW 03:41:05 12° N 03:43:26 10° NNE visible
11 Aug ? 20:56:50 12° E 20:57:44 13° E 21:00:35 10° ENE visible
11 Aug ? 22:41:43 47° SSE 22:43:38 62° ESE 22:50:45 10° NNE visible
12 Aug ? 00:26:36 18° WSW 00:31:24 38° NW 00:38:03 10° NNE visible
12 Aug ? 02:17:06 10° NW 02:21:03 15° NNW 02:24:59 10° NNE visible
12 Aug ? 21:25:08 24° ESE 21:26:24 25° E 21:31:59 10° NE visible
12 Aug ? 23:10:01 39° SW 23:13:00 80° WNW 23:20:17 10° NNE visible
13 Aug ? 00:55:43 10° W 01:01:30 25° NW 01:07:18 10° NNE visible
13 Aug ? 02:49:00 10° NNW 02:51:47 12° N 02:54:32 10° NNE visible
13 Aug ? 21:53:22 37° SE 21:55:20 44° ESE 22:02:05 10° NE visible
13 Aug ? 23:38:14 23° WSW 23:42:40 49° NW 23:49:38 10° NNE visible
14 Aug ? 01:27:11 10° WNW 01:31:53 18° NNW 01:36:34 10° NNE visible
14 Aug ? 03:20:22 10° NNW 03:22:36 11° N 03:24:48 10° NNE visible
14 Aug ? 20:36:37 16° ESE 20:38:22 17° E 20:42:38 10° ENE visible
14 Aug ? 22:21:29 38° SSW 22:24:33 77° ESE 22:31:46 10° NNE visible
15 Aug ? 00:06:20 10° WSW 00:12:36 32° NW 00:18:56 10° NNE visible
15 Aug ? 01:59:03 10° NW 02:02:29 14° NNW 02:05:55 10° NNE visible
15 Aug ? 03:50:32 10° NNW 03:53:24 12° NNE 03:56:13 10° NE visible
15 Aug ? 21:04:37 25° SE 21:07:09 31° ESE 21:13:18 10° NE visible
15 Aug ? 22:49:28 24° SW 22:54:02 66° WNW 23:01:14 10° NNE visible
16 Aug ? 00:37:25 10° W 00:42:49 22° NW 00:48:11 10° NNE visible
16 Aug ? 02:30:53 10° NNW 02:33:16 12° N 02:35:37 10° NNE visible
16 Aug ? 19:49:00 10° E 19:50:26 11° E 19:51:53 10° ENE visible
16 Aug ? 21:32:25 28° S 21:36:11 55° ESE 21:43:12 10° NE visible
16 Aug ? 23:17:15 11° WSW 23:23:48 41° NW 23:30:33 10° NNE visible
17 Aug ? 01:09:04 10° WNW 01:13:17 16° NNW 01:17:26 10° NNE visible
17 Aug ? 03:01:49 10° NNW 03:04:05 12° N 03:06:21 10° NNE visible
17 Aug ? 20:15:08 14° SE 20:19:02 22° E 20:24:14 10° NE visible
17 Aug ? 21:59:56 18° SSW 22:05:30 88° WNW 22:12:46 10° NNE visible
17 Aug ? 23:47:50 10° W 23:53:50 27° NW 23:59:48 10° NNE visible
18 Aug ? 01:41:01 10° NW 01:43:57 13° NNW 01:46:51 10° NNE visible
18 Aug ? 03:31:37 10° NNW 03:34:51 13° NNE 03:38:01 10° NE visible
18 Aug ? 20:42:14 13° SSE 20:47:56 39° ESE 20:54:30 10° NE visible
18 Aug ? 22:28:04 10° SW 22:35:06 55° NW 22:42:09 10° NNE visible
19 Aug ? 00:19:13 10° WNW 00:24:09 19° NNW 00:29:02 10° NNE visible
19 Aug ? 02:12:39 10° NNW 02:14:45 11° N 02:16:50 10° NNE visible
19 Aug ? 04:00:59 10° NNW 04:05:27 17° NNE 04:09:44 10° ENE visible
19 Aug ? 19:27:28 10° ESE 19:31:02 15° E 19:34:37 10° ENE visible
19 Aug ? 21:10:00 10° SSW 21:17:05 68° ESE 21:24:13 10° NNE visible
19 Aug ? 22:58:29 10° WSW 23:04:58 35° NW 23:11:26 10° NNE visible
20 Aug ? 00:51:02 10° NW 00:54:42 14° NNW 00:58:19 10° NNE visible
20 Aug ? 02:43:04 10° NNW 02:45:34 12° N 02:48:01 10° NNE visible
20 Aug ? 19:53:57 10° SSE 19:59:45 28° E 20:05:36 10° NE visible
20 Aug ? 21:39:19 10° SW 21:46:30 74° WNW 21:53:43 10° NNE visible
20 Aug ? 23:29:30 10° W 23:35:07 24° NW 23:40:40 10° NNE visible
